x

South Brooks (46132) Wave Buoy

5:00 - Tue 22nd Aug 2017 All times are PDT. -7 hours from GMT.

  • Sig Wave height 4.6ft
  • Peak Period 8s
  • Wind
    13mph, 16mph gusts
  • Sea Temp 60°f
  • Ar Temp 59°f
  • Sea Pressure 1016.4mb
  • South Brooks
  • South Brooks

More Historic Weather Station data

Upgrade to MSW Pro to gain access to the past 30 days of data for over 8000 Wavebouys and Weather Stations around the globe.

Join

Comparision Forecast

View Surf forecast
   
Ter 08/22 5:00 4.5ft 8s 13 16 mph 1016.4mb 60f 59f
4:00 4.5ft 14s 18 20 mph 1016.5mb 60f 59f
3:00 4.5ft 8s 18 22 mph 1016.6mb 60f 59f
2:00 4ft 8s 16 18 mph 1016.6mb 60f 58f
1:00 4.5ft 8s 16 18 mph 1017.1mb 60f 58f
12:00 4.5ft 14s 16 20 mph 1017.6mb 60f 59f
Seg 08/21 11:00 4.5ft 9s 16 18 mph 1018mb 60f 59f
10:00 4.5ft 8s 16 20 mph 1018.4mb 60f 60f
9:00 4.5ft 8s 18 20 mph 1018.7mb 61f 60f
8:00 4.5ft 8s 13 18 mph 1019mb 61f 61f
7:00 4.5ft 9s 16 18 mph 1019.3mb 61f 61f
6:00 4.5ft 8s 11 13 mph 1019.7mb 62f 61f
5:00 4ft 8s 9 13 mph 1020.2mb 62f 62f
4:00 4ft 8s 9 11 mph 1020.7mb 62f 62f
3:00 4.5ft 15s 7 7 mph 1021mb 63f 62f
2:00 4ft 8s 2 4 mph 1021.2mb 62f 63f
1:00 4ft 8s 2 2 mph 1021.5mb 61f 62f
12:00 3.5ft 8s  -  2 mph 1021.5mb 61f 62f
11:00 4.5ft 8s 2 4 mph 1021.6mb 61f 61f
10:00 4.5ft 8s 2 4 mph 1021.5mb 60f 61f
9:00 4.5ft 9s 2 4 mph 1021.7mb 60f 60f
8:00 4.5ft 7s 4 4 mph 1021.5mb 61f 61f
7:00 4.5ft 10s 2 4 mph 1021.3mb 61f 60f
6:00 4.5ft 8s 2 2 mph 1021.1mb 60f 60f
5:00 4.5ft 9s 2 2 mph 1020.9mb 61f 60f
4:00 4.5ft 8s 2 4 mph 1020.8mb 61f 60f
3:00 5ft 9s 4 4 mph 1020.9mb 61f 60f
2:00 5ft 10s 2 4 mph 1021mb 61f 60f
1:00 4.5ft 8s 2 4 mph 1021mb 61f 60f
12:00 4.5ft 9s 2 2 mph 1021.1mb 61f 60f
Dom 08/20 11:00 5ft 8s 4 4 mph 1021mb 61f 60f
10:00 5ft 8s 4 4 mph 1020.9mb 61f 60f
9:00 5ft 8s 2 4 mph 1021.2mb 61f 61f
8:00 5.5ft 8s 2 4 mph 1020.8mb 61f 61f
7:00 5.5ft 8s 2 2 mph 1020.8mb 61f 61f
6:00 5.5ft 8s 4 4 mph 1020.9mb 61f 62f
5:00 5ft 8s 2 4 mph 1021.4mb 61f 62f
4:00 5ft 16s 4 7 mph 1021.3mb 61f 62f
3:00 5.5ft 10s 4 7 mph 1021.2mb 61f 62f
2:00 5ft 10s 4 7 mph 1021.2mb 61f 61f
1:00 5ft 10s 4 7 mph 1021.2mb 60f 61f
12:00 5ft 16s 9 9 mph 1021mb 60f 61f
11:00 5ft 10s 9 11 mph 1021mb 60f 61f
10:00 5ft 10s 9 11 mph 1021.1mb 60f 60f
9:00 5ft 10s 9 11 mph 1021.2mb 60f 60f
8:00 5ft 10s 7 9 mph 1021.3mb 60f 60f
7:00 5ft 10s 4 7 mph 1021.3mb 60f 61f
6:00 5ft 8s 7 9 mph 1021.5mb 60f 61f
5:00 5ft 10s 11 13 mph 1021.4mb 60f 61f
4:00 5ft 10s 4 4 mph 1021.6mb 60f 61f
3:00 5ft 10s 4 4 mph 1021.7mb 60f 61f
2:00 5ft 10s 7 9 mph 1022mb 60f 61f
1:00 5ft 10s 11 13 mph 1022.2mb 60f 62f
12:00 4.5ft 10s 7 11 mph 1022.3mb 60f 60f
Sáb 08/19 11:00 4.5ft 8s 7 7 mph 1022.6mb 60f 58f
10:00 5ft 10s 4 9 mph 1023mb 60f 58f
9:00 5.5ft 10s 4 7 mph 1023.4mb 60f 59f
8:00 5.5ft 10s 9 11 mph 1023.5mb 60f 60f
7:00 5.5ft 10s 7 9 mph 1023.9mb 60f 60f
6:00 5.5ft 9s 9 11 mph 1024.2mb 60f 60f
5:00 5.5ft 10s 11 13 mph 1024.5mb 60f 60f
4:00 5.5ft 9s 11 13 mph 1024.7mb 60f 60f
3:00 5ft 10s 11 13 mph 1024.9mb 60f 60f
2:00 6ft 10s 11 13 mph 1025.2mb 60f 60f
1:00 5.5ft 9s 11 13 mph 1025mb 60f 59f
12:00 5.5ft 9s 11 13 mph 1024.9mb 60f 59f
11:00 5ft 8s 13 13 mph 1024.7mb 60f 59f
10:00 5ft 8s 13 16 mph 1024.6mb 60f 59f
9:00 5ft 10s 13 16 mph 1024.5mb 60f 59f
8:00 6ft 9s 13 13 mph 1024.5mb 60f 58f
7:00 5.5ft 9s 11 13 mph 1024.2mb 59f 58f
6:00 5.5ft 8s 13 16 mph 1024.1mb 59f 58f
5:00 5.5ft 8s 13 16 mph 1023.9mb 59f 59f
4:00 5.5ft 8s 13 16 mph 1024.1mb 59f 59f
3:00 5.5ft 9s 9 11 mph 1024.2mb 59f 58f
2:00 6ft 8s 9 11 mph 1024mb 59f 59f
1:00 5.5ft 9s 7 9 mph 1024.1mb 59f 59f
12:00 5.5ft 8s 9 11 mph 1024mb 59f 59f
Sex 08/18 11:00 5.5ft 8s 11 13 mph 1023.9mb 60f 59f
10:00 6ft 8s 13 16 mph 1023.8mb 60f 60f
9:00 6ft 8s 13 18 mph 1023.8mb 60f 60f
8:00 6ft 9s 13 18 mph 1023.5mb 60f 60f
7:00 5.5ft 9s 16 18 mph 1023.6mb 59f 60f
6:00 5.5ft 8s 16 18 mph 1023.7mb 59f 60f
5:00 6ft 8s 16 20 mph 1023.6mb 59f 60f
4:00 6ft 10s 18 20 mph 1023.7mb 59f 60f
3:00 6ft 10s 16 20 mph 1023.7mb 59f 59f
2:00 6ft 10s 16 18 mph 1023.3mb 59f 59f